Find Starlink 34569

NORAD ID: 64610 Int'l Des: 2025-137 Owner: SPXS Country: US Constellation: starlink operational
LEOCIRCULAR

現在のビュー

3D地球を読み込み中...

About Starlink 34569

Starlink 34569 (NORAD 64610) is a starlink constellation satellite (v2 mini) launched Jun 25, 2025 by SPXS of US. It operates in LEO, CIRCULAR orbit with a mass of 575.00 kg.

Starlink 34569について

説明を読み込み中...

次回通過

Passes for default location (London). Set your location on the main map for personalized predictions.

高度履歴

Loading altitude history...

軌道要素

1 64610U 25137S 26166.92047156 .00016324 00000-0 49325-3 0 9992
2 64610 53.1602 239.0252 0000989 87.3138 272.7978 15.34396924 55777
Epoch: Jun 15, 2026 • Age: 9 hours

現在のステータス

高度 480.2 km
速度 7.62 km/s
衛星直下点 -49.09°S, 107.12°E
打ち上げ日 Jun 25, 2025
運用期間 0.9 years
タイプ internet

技術仕様

分類 Payload
質量 575.00 kg
乾燥質量 530.00 kg
総質量 575.00 kg
長さ 0.30 m
直径 4.10 m
スパン 29.00 m
形状 Box + pan
製造者 SPXS
バスタイプ Starlink V2MO
フェーズステータス In Orbit
所有者/国 SPXS/US

Most Searched